[[{"header":{"parameterUnit":"m.s-1","parameterCategory":2,"la1":30.2991,"la2":30.254,"lo1":-89.0895,"lo2":-89.0444,"dy":0.0017,"dx":0.0017,"nx":28,"ny":28,"refTime":"2024-03-26T03:00:00:Z","depth":"0","parameterNumber":2,"parameterNumberName":"U-component_of_CURRENTS"},"data":[0,0,0,0,0,0,0,0,0,0,0,0,0,0,0,0,0,0,0,0,0,0,0,0,0,0,0,0,0,0,0,0,0,0,0,0,0,0,0,0,0,0,0,0,0,0,0,0,0,0,0,0,0,0,0,0,0,0,0.2583,0.2583,0,0.2573,0.2572,0.2572,0.2546,0.2546,0.2545,0.2545,0.253,0.253,0.2529,0,0,0,0,0,0,0,0,0,0,0,0,0,0.2598,0.2598,0.2583,0.2583,0.2583,0.2573,0.2572,0.2572,0.2546,0.2546,0.2545,0.2545,0.253,0.253,0.2529,0,0,0,0,0,0,0,0,0,0,0,0,0,0.2588,0.2598,0.2583,0.257,0.2569,0.2573,0.2572,0.2572,0.2546,0.2546,0.2545,0.2545,0.253,0.253,0.2529,0.2539,0,0,0.2529,0.2529,0,0,0,0,0,0,0,0,0.2589,0.2587,0.2572,0.2571,0.257,0.2562,0.2572,0.2561,0.2546,0.2553,0.2545,0.2545,0.2542,0.2541,0.2537,0.2538,0.2537,0.2529,0.2529,0.2529,0.2529,0,0,0,0,0,0,0,0.2589,0.2588,0.2576,0.2572,0.2571,0.2572,0.257,0.257,0.2548,0.2552,0.2551,0.2553,0.2541,0.2537,0.2536,0.2537,0.2529,0.2529,0.2529,0.2529,0.2586,0.2587,0,0,0,0,0,0,0.2595,0.2588,0.2577,0.2576,0.2581,0.2572,0.2569,0.2563,0.2548,0.2546,0.2554,0.2552,0.2537,0.2536,0.2536,0.2589,0.2529,0.2529,0.2529,0.2584,0.2586,0.2588,0,0,0,0,0,0,0.2595,0.2593,0.2577,0.2584,0.2583,0.2573,0.2566,0.2563,0.2563,0.255,0.2547,0.2557,0.2537,0.2536,0.2538,0.2586,0.2529,0.2528,0.2582,0.2585,0.2587,0.2668,0,0,0,0,0,0,0.2595,0.2593,0.2591,0.2584,0.2582,0.259,0.2567,0.2564,0.2566,0.2564,0.2552,0.255,0.2536,0.2538,0.2538,0.2585,0.2528,0.258,0.2584,0.2586,0.2663,0.2673,0.2681,0,0,0,0,0,0.2596,0.2596,0.259,0.2589,0.2579,0.2591,0.259,0.258,0.2567,0.2575,0.256,0.255,0.2558,0.2539,0.2538,0.2587,0.2579,0.2583,0.2586,0.2659,0.2671,0.2681,0,0,0,0,0,0,0.2599,0.2594,0.2587,0.2584,0.2593,0.2587,0.2593,0.2586,0.258,0.2575,0.2558,0.2555,0.2581,0.2568,0.2547,0.2613,0.2573,0.2576,0.2629,0.264,0.2648,0.2658,0.2528,0,0,0,0,0,0.26,0.26,0.26,0.26,0.2605,0.26,0.2602,0.2598,0.2593,0.259,0.258,0.2579,0.2596,0.2602,0.2605,0.2632,0.2632,0.2667,0.2676,0.2683,0.2692,0.2751,0.2766,0.26,0.26,0.26,0,0,0.26,0.26,0.2598,0.2602,0.2604,0.262,0.26,0.261,0.2627,0.259,0.2603,0.2605,0.2609,0.2642,0.2655,0.2636,0.2726,0.2688,0.2694,0.2699,0.2756,0.2773,0.2787,0.2602,0.2602,0.2602,0,0,0.2613,0.2604,0.2612,0.2624,0.2635,0.2637,0.2643,0.2643,0.2647,0.2662,0.2651,0.2678,0.2683,0.2708,0.272,0.278,0.2769,0.2786,0.2843,0.2901,0.2915,0.2928,0.2927,0.294,0.2793,0.2793,0.2794,0,0.2615,0.262,0.2619,0.2639,0.2651,0.2648,0.2668,0.2679,0.2679,0.2693,0.2676,0.2721,0.2724,0.2789,0.2814,0.2805,0.2811,0.2802,0.2914,0.2926,0.2938,0.2935,0.2947,0.2798,0.2797,0.2797,0.2796,0,0.2637,0.2644,0.2655,0.2675,0.2694,0.2709,0.2729,0.2746,0.2749,0.2759,0.2811,0.2819,0.2846,0.2868,0.286,0.2953,0.292,0.2917,0.2888,0.296,0.2951,0.2963,0.2804,0.2802,0.2801,0.28,0,0,0.2619,0.266,0.2661,0.2672,0.2711,0.272,0.2773,0.2809,0.2837,0.2859,0.2901,0.2958,0.2958,0.2973,0.2979,0.3038,0.3123,0.3018,0.3019,0.3019,0.3215,0.3131,0.3135,0.3145,0.3148,0.315,0.3167,0,0.2631,0.266,0.2691,0.2721,0.2731,0.2769,0.2812,0.2851,0.2884,0.2922,0.2967,0.2999,0.3,0.3015,0.3083,0.3104,0.316,0.3116,0.3143,0.3143,0.3064,0.3149,0.3084,0.3089,0.3178,0.318,0.3181,0,0.2627,0.2647,0.2679,0.2724,0.2735,0.2767,0.283,0.2871,0.2946,0.2973,0.3035,0.305,0.3127,0.3119,0.3218,0.3187,0.3216,0.3237,0.3238,0.3143,0.3083,0.3037,0.3106,0.3087,0.3198,0.3197,0.3196,0,0.2574,0.2629,0.2648,0.2665,0.2729,0.2764,0.2803,0.2881,0.2915,0.3002,0.3027,0.3115,0.3144,0.3218,0.3253,0.3245,0.3349,0.3336,0.3289,0.328,0.322,0.3201,0.3278,0.3434,0.3434,0.3434,0.3434,0,0.255,0.2557,0.2623,0.2628,0.2658,0.2725,0.277,0.2831,0.2915,0.296,0.3037,0.3087,0.3178,0.3235,0.3275,0.3304,0.3366,0.3314,0.33,0.324,0.3224,0.3197,0.318,0.3435,0.3435,0.3434,0.3434,0,0.2474,0.2518,0.2535,0.2606,0.2627,0.2645,0.2727,0.2762,0.2853,0.292,0.2943,0.3066,0.3146,0.3209,0.3315,0.3308,0.3276,0.3354,0.3244,0.3217,0.3125,0.3112,0.2981,0.2891,0.3296,0.3294,0.3293,0,0.2434,0.2438,0.2496,0.2506,0.2539,0.2578,0.2607,0.2709,0.2757,0.2906,0.2932,0.3037,0.3113,0.3204,0.3233,0.327,0.3221,0.3205,0.3191,0.3127,0.3105,0.2955,0.2878,0.3133,0.313,0.3128,0.3126,0,0.2363,0.2389,0.2409,0.2423,0.245,0.2477,0.2537,0.2559,0.2692,0.2756,0.2863,0.2943,0.3064,0.3092,0.3137,0.3155,0.3066,0.3158,0.3157,0.3041,0.2821,0.2724,0.3072,0.3108,0.3109,0.3111,0.3112,0.3113,0.2309,0.2301,0.2329,0.2332,0.2354,0.2366,0.2361,0.2444,0.2496,0.2597,0.2739,0.2837,0.2973,0.3038,0.3016,0.2974,0.2929,0.2946,0.295,0.2812,0.2689,0.2957,0.2935,0.2936,0.2937,0.2938,0.2938,0,0.2228,0.2228,0.2234,0.2229,0.2207,0.2259,0.2299,0.2294,0.2319,0.2473,0.2558,0.2724,0.2777,0.2861,0.2903,0.283,0.2671,0.2768,0.2605,0.2551,0.288,0.2842,0.2721,0.2721,0.2721,0.2721,0.2721,0.2721,0.2187,0.2152,0.2147,0.2078,0.2076,0.2032,0.2035,0.206,0.2145,0.225,0.2367,0.2496,0.276,0.2863,0.2844,0.2762,0.2588,0.2447,0.2415,0.2752,0.277,0.2788,0.2752,0.2614,0.2613,0.1994,0.199,0.1987]},{"header":{"parameterUnit":"m.s-1","parameterCategory":2,"la1":30.2991,"la2":30.254,"lo1":-89.0895,"lo2":-89.0444,"dy":0.0017,"dx":0.0017,"nx":28,"ny":28,"refTime":"2024-03-26T03:00:00:Z","depth":"0","parameterNumber":3,"parameterNumberName":"V-component_of_CURRENTS"},"data":[0,0,0,0,0,0,0,0,0,0,0,0,0,0,0,0,0,0,0,0,0,0,0,0,0,0,0,0,0,0,0,0,0,0,0,0,0,0,0,0,0,0,0,0,0,0,0,0,0,0,0,0,0,0,0,0,0,0,0.0007,0.0007,0,-0.0027,-0.0027,-0.0027,-0.0056,-0.0057,-0.0057,-0.0057,-0.0106,-0.0107,-0.0108,0,0,0,0,0,0,0,0,0,0,0,0,0,0.0015,0.0015,0.0007,0.0007,0.0007,-0.0027,-0.0027,-0.0028,-0.0056,-0.0057,-0.0057,-0.0057,-0.0106,-0.0107,-0.0108,0,0,0,0,0,0,0,0,0,0,0,0,0,-0.0001,0.0015,0.0007,-0.0011,-0.0013,-0.0026,-0.0027,-0.0028,-0.0056,-0.0057,-0.0057,-0.0057,-0.0105,-0.0107,-0.0108,-0.0109,0,0,-0.0113,-0.0114,0,0,0,0,0,0,0,0,0.0,-0.0001,-0.0008,-0.001,-0.0012,-0.0037,-0.0042,-0.0056,-0.0056,-0.004,-0.0057,-0.0058,-0.0084,-0.0087,-0.0093,-0.0112,-0.0114,-0.0113,-0.0114,-0.0115,-0.0115,0,0,0,0,0,0,0,0.0001,-0.0,-0.0006,-0.0009,-0.0011,-0.0029,-0.0032,-0.0045,-0.006,-0.0042,-0.0044,-0.0047,-0.0085,-0.0091,-0.0094,-0.0114,-0.0113,-0.0114,-0.0115,-0.0116,-0.0129,-0.0128,0,0,0,0,0,0,0.0008,0.0001,-0.0005,-0.0007,-0.0007,-0.0029,-0.0032,-0.0029,-0.006,-0.0064,-0.0046,-0.0048,-0.0088,-0.0092,-0.0096,-0.0083,-0.0115,-0.0116,-0.0117,-0.013,-0.0129,-0.0128,0,0,0,0,0,0,0.0009,0.0008,-0.0004,-0.0004,-0.0007,-0.0028,-0.0026,-0.003,-0.0035,-0.0063,-0.0068,-0.0047,-0.0089,-0.0094,-0.01,-0.0085,-0.0117,-0.0118,-0.013,-0.0129,-0.0129,-0.0066,0,0,0,0,0,0,0.0009,0.0009,0.0014,-0.0003,-0.0007,-0.0003,-0.0025,-0.003,-0.0036,-0.0039,-0.0065,-0.007,-0.009,-0.0097,-0.0101,-0.0088,-0.0119,-0.0131,-0.013,-0.0129,-0.0069,-0.0063,-0.0058,0,0,0,0,0,0.001,0.0022,0.0014,0.0013,0.0001,-0.0003,-0.0006,-0.0023,-0.0036,-0.0031,-0.0049,-0.0069,-0.0093,-0.0098,-0.0103,-0.009,-0.0132,-0.013,-0.0129,-0.0071,-0.0064,-0.0058,0,0,0,0,0,0,0.0025,0.002,0.0011,0.002,0.0012,-0.0007,-0.0004,-0.0019,-0.003,-0.0032,-0.0061,-0.0067,-0.0067,-0.0087,-0.0091,-0.0091,-0.0116,-0.0116,-0.0071,-0.0064,-0.0059,-0.004,-0.0121,0,0,0,0,0,0.0032,0.0042,0.0029,0.0036,0.0035,0.0016,0.0012,0.0,-0.0012,-0.0018,-0.0038,-0.0056,-0.0066,-0.0071,-0.0086,-0.0084,-0.0104,-0.0079,-0.0074,-0.0069,-0.0057,-0.0072,-0.0066,-0.0124,-0.0124,-0.0124,0,0,0.0039,0.0038,0.0042,0.004,0.0033,0.0044,0.0013,0.0013,0.0022,-0.0021,-0.0016,-0.0039,-0.0062,-0.0059,-0.0061,-0.0073,-0.0065,-0.0068,-0.0063,-0.0054,-0.007,-0.0064,-0.0059,-0.0123,-0.0123,-0.0123,0,0,0.0065,0.0059,0.0079,0.0078,0.0073,0.0065,0.0068,0.0052,0.0046,0.0047,0.0019,0.0007,-0.0011,-0.0022,-0.0029,-0.0003,-0.0038,-0.0012,0.0033,0.0019,0.0024,0.0028,0.0003,0.0004,-0.0008,-0.0007,-0.0007,0,0.0072,0.0098,0.0083,0.0101,0.0109,0.0079,0.0104,0.0095,0.0077,0.0083,0.0058,0.0036,0.001,0.0021,0.0028,0.001,-0.0008,0.0012,0.0027,0.003,0.0033,0.0007,0.0008,-0.0004,-0.0005,-0.0005,-0.0005,0,0.0116,0.0134,0.0146,0.0164,0.0169,0.0184,0.0174,0.0175,0.0161,0.015,0.0151,0.0111,0.01,0.0087,0.0065,0.0077,0.0054,0.0034,0.0013,0.0043,0.0013,0.0012,0.0,-0.0001,-0.0002,-0.0003,0,0,0.0146,0.0173,0.0179,0.0204,0.0206,0.0221,0.0237,0.0252,0.0273,0.024,0.0261,0.0229,0.02,0.0189,0.0153,0.0138,0.0133,0.01,0.0098,0.008,0.0096,0.0065,0.006,0.0117,0.0117,0.0118,0.0064,0,0.0188,0.0243,0.0242,0.0297,0.0328,0.0312,0.0336,0.0341,0.0333,0.0341,0.0298,0.0297,0.0241,0.0234,0.0211,0.0155,0.0136,0.0149,0.0066,0.0063,0.0036,0.0061,0.0077,0.003,0.0063,0.0063,0.0063,0,0.024,0.0273,0.0332,0.0381,0.0393,0.0419,0.0461,0.0475,0.0472,0.0464,0.0445,0.0401,0.037,0.0315,0.0239,0.0249,0.0183,0.0132,0.0129,0.008,0.0032,0.0006,0.0028,-0.0107,0.0062,0.0062,0.0062,0,0.0291,0.0342,0.0397,0.0411,0.045,0.0482,0.0506,0.0518,0.0544,0.0539,0.0547,0.0496,0.0472,0.0388,0.0267,0.0257,0.0176,0.0146,0.0055,0.0051,0.0041,0.0035,-0.0071,0.0099,0.0099,0.01,0.01,0,0.0346,0.0393,0.0428,0.0463,0.0537,0.0542,0.0615,0.0625,0.0644,0.0687,0.0613,0.0624,0.049,0.0416,0.0302,0.0177,0.02,0.0072,0.0042,0.0061,0.0058,-0.008,-0.016,0.0097,0.0098,0.0098,0.0099,0,0.0394,0.0413,0.0485,0.0542,0.0564,0.062,0.0689,0.0738,0.074,0.0789,0.0787,0.0725,0.063,0.0479,0.0341,0.0229,0.0025,0.0056,0.0079,0.0053,-0.0158,-0.0234,-0.0374,-0.0447,-0.0047,-0.0048,-0.0049,0,0.0424,0.0465,0.0546,0.0594,0.0625,0.0702,0.0758,0.0788,0.0841,0.0857,0.0889,0.0803,0.0768,0.0539,0.0323,0.0118,-0.0013,-0.0006,-0.0022,-0.0161,-0.0267,-0.0323,-0.0378,-0.0018,-0.0019,-0.0019,-0.002,0,0.0486,0.0511,0.0569,0.0664,0.0737,0.0816,0.0899,0.0955,0.0991,0.1031,0.1061,0.1029,0.0803,0.0604,0.0309,0.0162,-0.0106,-0.0022,-0.0163,-0.0249,-0.0317,-0.0404,-0.0006,-0.0023,-0.0023,-0.0023,-0.0022,-0.0022,0.053,0.0579,0.0651,0.074,0.0821,0.0916,0.0996,0.1082,0.1171,0.1241,0.1201,0.1198,0.0894,0.0495,0.0255,-0.0147,-0.0158,-0.0254,-0.0333,-0.0377,-0.0449,-0.0068,-0.0122,-0.0122,-0.0123,-0.0123,-0.0123,0,0.0579,0.0633,0.0721,0.0825,0.0915,0.0947,0.1076,0.116,0.1279,0.1359,0.1388,0.1261,0.0878,0.0482,-0.006,-0.0376,-0.0494,-0.0554,-0.0624,-0.0665,-0.0317,-0.0317,-0.0418,-0.0418,-0.0418,-0.0418,-0.0417,-0.0417,0.0607,0.069,0.0729,0.0874,0.0951,0.1072,0.115,0.128,0.1378,0.1494,0.1523,0.1506,0.1239,0.0221,-0.0481,-0.0662,-0.0882,-0.0946,-0.1071,-0.0828,-0.0805,-0.0784,-0.0803,-0.1004,-0.1004,-0.1368,-0.1372,-0.1374]}],[{"header":{"parameterUnit":"m.s-1","parameterCategory":2,"la1":30.2991,"la2":30.254,"lo1":-89.0895,"lo2":-89.0444,"dy":0.0017,"dx":0.0017,"nx":28,"ny":28,"refTime":"2024-03-26T03:00:00:Z","depth":"2","parameterNumber":2,"parameterNumberName":"U-component_of_CURRENTS"},"data":[0,0,0,0,0,0,0,0,0,0,0,0,0,0,0,0,0,0,0,0,0,0,0,0,0,0,0,0,0,0,0,0,0,0,0,0,0,0,0,0,0,0,0,0,0,0,0,0,0,0,0,0,0,0,0,0,0,0,0.2446,0.2446,0,0.2439,0.2439,0.2439,0.2419,0.2419,0.2419,0.2419,0.2403,0.2403,0.2402,0,0,0,0,0,0,0,0,0,0,0,0,0,0.2456,0.2456,0.2446,0.2446,0.2446,0.2439,0.2439,0.2439,0.2419,0.2419,0.2419,0.2418,0.2403,0.2403,0.2402,0,0,0,0,0,0,0,0,0,0,0,0,0,0.2449,0.2456,0.2446,0.2437,0.2436,0.2439,0.2439,0.2439,0.2419,0.2419,0.2419,0.2418,0.2403,0.2403,0.2402,0.2407,0,0,0.2401,0.2401,0,0,0,0,0,0,0,0,0.2449,0.2448,0.2438,0.2438,0.2437,0.2432,0.2437,0.2428,0.2419,0.2423,0.2419,0.2418,0.2413,0.2412,0.2409,0.2406,0.2406,0.2401,0.2401,0.2401,0.2401,0,0,0,0,0,0,0,0.245,0.2448,0.2441,0.2439,0.2438,0.2439,0.2437,0.2435,0.2418,0.2423,0.2422,0.2425,0.2413,0.2409,0.2408,0.2405,0.2401,0.2401,0.2401,0.2401,0.2452,0.2454,0,0,0,0,0,0,0.2455,0.2449,0.2441,0.2441,0.2445,0.2439,0.2437,0.2432,0.2419,0.2417,0.2426,0.2424,0.241,0.2408,0.2407,0.2459,0.2401,0.2401,0.24,0.2451,0.2453,0.2454,0,0,0,0,0,0,0.2455,0.2454,0.2441,0.2447,0.2446,0.2439,0.2434,0.2432,0.2435,0.2421,0.2419,0.2432,0.2409,0.2408,0.2411,0.2457,0.24,0.24,0.2449,0.2451,0.2453,0.2533,0,0,0,0,0,0,0.2455,0.2453,0.2453,0.2447,0.2446,0.2455,0.2434,0.2432,0.2438,0.2437,0.2426,0.2423,0.2409,0.2412,0.2411,0.2455,0.24,0.2447,0.245,0.2453,0.2529,0.2538,0.2546,0,0,0,0,0,0.2455,0.2457,0.2453,0.2452,0.2444,0.2456,0.2456,0.2448,0.2439,0.2448,0.2435,0.2424,0.2431,0.2412,0.2411,0.2457,0.2445,0.2449,0.2452,0.2525,0.2536,0.2546,0,0,0,0,0,0,0.2459,0.2455,0.245,0.245,0.2458,0.2454,0.2461,0.2456,0.2453,0.245,0.2432,0.2429,0.2455,0.244,0.242,0.2481,0.2442,0.2445,0.2497,0.2508,0.2516,0.2527,0.24,0,0,0,0,0,0.2461,0.2462,0.2463,0.2465,0.247,0.2467,0.2471,0.2469,0.2465,0.2464,0.2455,0.2453,0.2468,0.2473,0.2475,0.2499,0.2498,0.2532,0.254,0.2548,0.2556,0.2608,0.2622,0.2466,0.2466,0.2466,0,0,0.2462,0.2463,0.2462,0.2467,0.2471,0.2487,0.2468,0.2481,0.2498,0.2463,0.2479,0.248,0.248,0.2512,0.2523,0.2505,0.2588,0.2552,0.2559,0.2563,0.2613,0.2628,0.2642,0.2468,0.2468,0.2467,0,0,0.2476,0.2469,0.2479,0.2491,0.2504,0.2505,0.2513,0.2515,0.252,0.2537,0.2526,0.2551,0.2556,0.2576,0.2586,0.2644,0.2632,0.2649,0.2704,0.2755,0.2768,0.278,0.2782,0.2794,0.2656,0.2656,0.2656,0,0.248,0.2485,0.2486,0.2506,0.2518,0.2517,0.2537,0.2549,0.2552,0.2567,0.2553,0.2594,0.2595,0.2652,0.2677,0.2667,0.2674,0.2665,0.2768,0.2779,0.279,0.279,0.2801,0.266,0.266,0.2659,0.2659,0,0.2502,0.2511,0.2522,0.2543,0.2561,0.2577,0.2596,0.2616,0.2622,0.2633,0.2683,0.2688,0.2714,0.2733,0.2723,0.2808,0.278,0.2772,0.2742,0.2811,0.2805,0.2816,0.2666,0.2665,0.2664,0.2663,0,0,0.2488,0.2527,0.2529,0.2541,0.2579,0.2588,0.2639,0.2675,0.2704,0.2728,0.277,0.2821,0.2823,0.2835,0.2838,0.2889,0.2969,0.2869,0.287,0.2872,0.3053,0.2971,0.2974,0.2985,0.2988,0.299,0.3011,0,0.25,0.2529,0.2558,0.2589,0.2599,0.2636,0.2678,0.2717,0.2751,0.279,0.283,0.2862,0.2863,0.2879,0.2937,0.2952,0.3004,0.2961,0.2984,0.2984,0.2906,0.2987,0.2754,0.2749,0.3022,0.3023,0.3025,0,0.2499,0.2518,0.255,0.2594,0.2605,0.2637,0.27,0.274,0.2813,0.2841,0.2902,0.2917,0.2987,0.2977,0.3065,0.3037,0.306,0.3076,0.3077,0.2982,0.2924,0.2728,0.2758,0.3042,0.3041,0.3039,0.3038,0,0.2451,0.2504,0.2524,0.254,0.2601,0.2637,0.2676,0.2753,0.2787,0.2873,0.2899,0.2982,0.3009,0.3073,0.3101,0.3093,0.3183,0.3169,0.3119,0.311,0.2906,0.2876,0.3256,0.3256,0.3256,0.3256,0.3255,0,0.243,0.2439,0.2503,0.2509,0.254,0.2604,0.2652,0.2711,0.2793,0.2837,0.2913,0.296,0.3043,0.3093,0.3124,0.3143,0.3203,0.3143,0.3129,0.2924,0.2896,0.3145,0.3131,0.3256,0.3256,0.3256,0.3256,0,0.2361,0.2404,0.2422,0.2492,0.2513,0.2534,0.2615,0.265,0.2742,0.2806,0.283,0.2946,0.3018,0.3074,0.3163,0.3151,0.3186,0.3181,0.2911,0.2865,0.3069,0.306,0.3128,0.3126,0.3124,0.3122,0.3121,0,0.2324,0.233,0.2388,0.24,0.2433,0.2475,0.2505,0.2605,0.265,0.2794,0.2816,0.2918,0.298,0.3055,0.3053,0.3074,0.3154,0.2861,0.282,0.3087,0.3065,0.3059,0.3053,0.2567,0.2561,0.2556,0.2552,0,0.2259,0.2286,0.2306,0.2323,0.2353,0.2378,0.2439,0.2461,0.2588,0.2647,0.2744,0.2812,0.29,0.2821,0.2845,0.2834,0.2836,0.2766,0.3132,0.2641,0.2561,0.2539,0.255,0.251,0.2514,0.2517,0.252,0.2521,0.2211,0.2204,0.2232,0.2239,0.2261,0.2271,0.2267,0.2337,0.2382,0.2447,0.2589,0.2598,0.2643,0.2564,0.2495,0.2433,0.2644,0.2526,0.2539,0.2557,0.2495,0.2417,0.2324,0.2327,0.233,0.2332,0.2334,0,0.2131,0.2135,0.2143,0.2139,0.2113,0.2171,0.2205,0.2174,0.2179,0.2265,0.2316,0.2142,0.2112,0.2149,0.2002,0.2016,0.1986,0.1925,0.1863,0.1908,0.1947,0.1851,0.1511,0.1508,0.1505,0.1502,0,0,0.2091,0.2057,0.2052,0.1982,0.1986,0.193,0.1929,0.1901,0.192,0.1874,0.1854,0.2007,0.2097,0.1763,0.1735,0.1594,0.1732,0.1531,0.22,0.2172,0.2207,0.2311,0.2217,0,0,0,0,0]},{"header":{"parameterUnit":"m.s-1","parameterCategory":2,"la1":30.2991,"la2":30.254,"lo1":-89.0895,"lo2":-89.0444,"dy":0.0017,"dx":0.0017,"nx":28,"ny":28,"refTime":"2024-03-26T03:00:00:Z","depth":"2","parameterNumber":3,"parameterNumberName":"V-component_of_CURRENTS"},"data":[0,0,0,0,0,0,0,0,0,0,0,0,0,0,0,0,0,0,0,0,0,0,0,0,0,0,0,0,0,0,0,0,0,0,0,0,0,0,0,0,0,0,0,0,0,0,0,0,0,0,0,0,0,0,0,0,0,0,0.0083,0.0083,0,0.005,0.005,0.0049,0.0022,0.0022,0.0021,0.0021,-0.0024,-0.0025,-0.0026,0,0,0,0,0,0,0,0,0,0,0,0,0,0.0092,0.0092,0.0084,0.0083,0.0083,0.005,0.005,0.0049,0.0022,0.0022,0.0021,0.0021,-0.0024,-0.0025,-0.0026,0,0,0,0,0,0,0,0,0,0,0,0,0,0.0076,0.0092,0.0084,0.0065,0.0064,0.005,0.005,0.0049,0.0022,0.0022,0.0021,0.0021,-0.0024,-0.0025,-0.0027,-0.0028,0,0,-0.0031,-0.0032,0,0,0,0,0,0,0,0,0.0077,0.0076,0.0069,0.0067,0.0065,0.004,0.0036,0.0023,0.0022,0.0037,0.0021,0.0021,-0.0003,-0.0007,-0.0012,-0.003,-0.0032,-0.0031,-0.0032,-0.0033,-0.0033,0,0,0,0,0,0,0,0.0078,0.0077,0.007,0.0068,0.0066,0.0048,0.0046,0.0033,0.0019,0.0036,0.0034,0.0031,-0.0005,-0.0011,-0.0014,-0.0033,-0.0031,-0.0032,-0.0033,-0.0034,-0.0049,-0.0048,0,0,0,0,0,0,0.0085,0.0078,0.0071,0.0069,0.007,0.0048,0.0046,0.0048,0.0019,0.0015,0.0031,0.003,-0.0008,-0.0012,-0.0015,-0.0004,-0.0033,-0.0034,-0.0035,-0.0049,-0.0049,-0.0048,0,0,0,0,0,0,0.0086,0.0085,0.0072,0.0073,0.007,0.0049,0.0052,0.0048,0.0042,0.0016,0.0011,0.003,-0.0009,-0.0013,-0.002,-0.0007,-0.0035,-0.0036,-0.005,-0.0049,-0.0048,0.0008,0,0,0,0,0,0,0.0086,0.0086,0.009,0.0073,0.007,0.0072,0.0052,0.0047,0.0041,0.0038,0.0013,0.0008,-0.0009,-0.0017,-0.0021,-0.001,-0.0037,-0.005,-0.0049,-0.0049,0.0006,0.0011,0.0015,0,0,0,0,0,0.0087,0.0098,0.009,0.0089,0.0077,0.0072,0.0069,0.0052,0.0041,0.0044,0.0028,0.0009,-0.0015,-0.0018,-0.0023,-0.0011,-0.0051,-0.005,-0.0049,0.0004,0.001,0.0015,0,0,0,0,0,0,0.01,0.0095,0.0087,0.0095,0.0086,0.0068,0.007,0.0056,0.0045,0.0043,0.0016,0.0011,0.0009,-0.0009,-0.0012,-0.0013,-0.0036,-0.0036,0.0005,0.0011,0.0015,0.0033,-0.0038,0,0,0,0,0,0.0106,0.0116,0.0103,0.0109,0.0108,0.0089,0.0084,0.0074,0.0061,0.0056,0.0036,0.0019,0.001,0.0004,-0.0009,-0.0008,-0.0028,-0.0005,-0.0,0.0004,0.0015,-0.0001,0.0003,-0.0045,-0.0045,-0.0045,0,0,0.0112,0.0111,0.0115,0.0113,0.0105,0.0115,0.0086,0.0085,0.0093,0.0053,0.0057,0.0034,0.0013,0.0015,0.0012,0.0002,0.0006,0.0005,0.0009,0.0018,0.0001,0.0005,0.0009,-0.0044,-0.0044,-0.0044,0,0,0.0136,0.013,0.0148,0.0146,0.0142,0.0133,0.0136,0.012,0.0114,0.0113,0.0088,0.0076,0.0057,0.0047,0.004,0.0062,0.003,0.0054,0.0094,0.0079,0.0083,0.0086,0.0062,0.0062,0.0058,0.0058,0.0058,0,0.0142,0.0166,0.0152,0.0168,0.0176,0.0147,0.0169,0.016,0.0142,0.0146,0.0123,0.01,0.0076,0.0085,0.0091,0.0074,0.0056,0.0076,0.0086,0.0089,0.0091,0.0065,0.0065,0.0061,0.0061,0.0061,0.006,0,0.0182,0.0198,0.021,0.0226,0.023,0.0244,0.0233,0.0233,0.0219,0.0208,0.0206,0.0168,0.0157,0.0144,0.0124,0.0133,0.0111,0.0093,0.0074,0.01,0.007,0.0069,0.0065,0.0064,0.0063,0.0063,0,0,0.0209,0.0234,0.024,0.0264,0.0265,0.0279,0.0292,0.0304,0.0323,0.0289,0.0307,0.0276,0.0248,0.0237,0.0203,0.0186,0.0178,0.0151,0.0149,0.0131,0.0138,0.0112,0.0108,0.0162,0.0163,0.0163,0.0109,0,0.0249,0.03,0.0299,0.035,0.0379,0.0364,0.0384,0.0387,0.0378,0.0383,0.034,0.0338,0.0286,0.0279,0.0254,0.0199,0.0179,0.0194,0.0113,0.011,0.0087,0.0107,0.0133,0.0086,0.0107,0.0107,0.0107,0,0.0297,0.0328,0.0384,0.043,0.0441,0.0465,0.0502,0.0514,0.0507,0.0498,0.0478,0.0434,0.0403,0.0351,0.0274,0.0285,0.0222,0.0171,0.0168,0.0126,0.0083,0.0065,0.0083,0.0105,0.0105,0.0105,0.0105,0,0.0346,0.0394,0.0446,0.0458,0.0495,0.0524,0.0546,0.0555,0.0578,0.0569,0.0576,0.0523,0.0499,0.0416,0.03,0.029,0.0207,0.0179,0.0095,0.0092,0.0089,0.0086,0.0131,0.0131,0.0131,0.0131,0.0131,0,0.0398,0.0442,0.0476,0.0509,0.0579,0.0582,0.065,0.0658,0.0673,0.0712,0.0639,0.0649,0.0516,0.0442,0.0331,0.0211,0.023,0.0109,0.0082,0.0108,0.0107,0.0104,0.0102,0.0129,0.0129,0.013,0.013,0,0.0445,0.0462,0.053,0.0584,0.0605,0.0658,0.0723,0.0768,0.0767,0.0812,0.081,0.0747,0.0653,0.0506,0.0368,0.026,0.014,0.0092,0.0124,0.0102,0.0025,0.0026,-0.0003,-0.0004,-0.0005,-0.0006,-0.0007,0,0.0473,0.0512,0.0589,0.0635,0.0665,0.0737,0.079,0.0817,0.0868,0.0879,0.0909,0.0825,0.0788,0.0563,0.0354,0.0155,0.013,0.0045,0.0031,0.0038,0.0014,0.0017,0.002,0.0045,0.0045,0.0044,0.0044,0,0.0532,0.0556,0.0612,0.0703,0.0773,0.0849,0.0928,0.0982,0.1014,0.105,0.1077,0.1044,0.0823,0.0624,0.0338,0.0208,0.0076,0.0034,0.0044,0.0074,0.0079,0.0056,0.0058,0.0042,0.0042,0.0043,0.0043,0.0043,0.0574,0.0622,0.0691,0.0777,0.0855,0.0948,0.1026,0.1105,0.1189,0.1243,0.1205,0.116,0.0921,0.0559,0.0308,0.0045,0.0066,-0.0019,-0.0016,-0.0013,0.0002,0.0004,-0.0044,-0.0045,-0.0045,-0.0045,-0.0045,0,0.0622,0.0675,0.076,0.0862,0.0949,0.098,0.1106,0.1181,0.1292,0.1332,0.1349,0.1122,0.0883,0.0598,0.021,-0.0017,-0.0027,-0.0089,-0.0049,-0.0044,-0.0041,-0.0027,-0.0081,-0.0082,-0.0083,-0.0084,0,0,0.065,0.073,0.0769,0.0912,0.0987,0.1108,0.1185,0.1297,0.1361,0.1411,0.1381,0.1307,0.0969,0.0677,0.0365,0.0138,0.0101,0.0097,0.0156,0.0247,0.0253,0.0033,0.0064,0,0,0,0,0]}],[{"header":{"parameterUnit":"m.s-1","parameterCategory":2,"la1":30.2991,"la2":30.254,"lo1":-89.0895,"lo2":-89.0444,"dy":0.0017,"dx":0.0017,"nx":28,"ny":28,"refTime":"2024-03-26T03:00:00:Z","depth":"4","parameterNumber":2,"parameterNumberName":"U-component_of_CURRENTS"},"data":[0,0,0,0,0,0,0,0,0,0,0,0,0,0,0,0,0,0,0,0,0,0,0,0,0,0,0,0,0,0,0,0,0,0,0,0,0,0,0,0,0,0,0,0,0,0,0,0,0,0,0,0,0,0,0,0,0,0,0.1594,0.1594,0,0.1642,0.1642,0.1643,0.1693,0.1694,0.1695,0.1696,0.1749,0.175,0.175,0,0,0,0,0,0,0,0,0,0,0,0,0,0.1544,0.1545,0.1594,0.1594,0.1595,0.1642,0.1642,0.1643,0.1693,0.1694,0.1695,0.1696,0.1749,0.1749,0.175,0,0,0,0,0,0,0,0,0,0,0,0,0,0.1575,0.1545,0.1594,0.1627,0.1631,0.1642,0.1642,0.1643,0.1693,0.1694,0.1696,0.1697,0.1748,0.1749,0.175,0.173,0,0,0.1753,0.1753,0,0,0,0,0,0,0,0,0.1573,0.1576,0.1622,0.1625,0.1629,0.1664,0.1644,0.1673,0.1693,0.1668,0.1696,0.1698,0.1721,0.1724,0.1728,0.1733,0.1735,0.1753,0.1754,0.1754,0.1754,0,0,0,0,0,0,0,0.1571,0.1574,0.1611,0.1622,0.1627,0.164,0.1645,0.165,0.1685,0.167,0.1674,0.1682,0.1723,0.1727,0.173,0.1736,0.1753,0.1754,0.1755,0.1755,0.1824,0.1825,0,0,0,0,0,0,0.1567,0.1572,0.161,0.1613,0.1605,0.1639,0.1646,0.165,0.1686,0.1693,0.1681,0.1684,0.1725,0.1729,0.1732,0.1823,0.1754,0.1755,0.1755,0.1823,0.1824,0.1825,0,0,0,0,0,0,0.1565,0.1569,0.1608,0.1595,0.1601,0.1639,0.1644,0.1651,0.1692,0.1694,0.1701,0.1719,0.1726,0.1731,0.177,0.1821,0.1755,0.1756,0.1821,0.1823,0.1825,0.1931,0,0,0,0,0,0,0.1564,0.1568,0.1587,0.1595,0.1602,0.1641,0.1643,0.1651,0.1693,0.1698,0.1728,0.1732,0.1728,0.1769,0.1771,0.1821,0.1757,0.1819,0.1822,0.1824,0.1926,0.1937,0.1946,0,0,0,0,0,0.1561,0.1577,0.1587,0.1593,0.162,0.1642,0.1648,0.1677,0.1694,0.1717,0.1739,0.1733,0.1785,0.177,0.1773,0.1824,0.1818,0.1821,0.1824,0.1922,0.1935,0.1946,0,0,0,0,0,0,0.1568,0.1584,0.1596,0.1617,0.1641,0.1652,0.1681,0.1696,0.1731,0.1747,0.1748,0.1753,0.181,0.1793,0.1776,0.1848,0.1801,0.1805,0.1875,0.1887,0.1897,0.1897,0.1758,0,0,0,0,0,0.1575,0.1596,0.161,0.1634,0.1648,0.167,0.169,0.1709,0.1732,0.1751,0.1771,0.1791,0.1815,0.1834,0.1846,0.1881,0.1863,0.1914,0.1924,0.1932,0.1933,0.1941,0.1951,0.1835,0.1835,0.1835,0,0,0.1586,0.1599,0.1613,0.1639,0.1661,0.1688,0.1687,0.1727,0.1763,0.1749,0.1814,0.183,0.1832,0.1881,0.1903,0.1879,0.1959,0.1936,0.1944,0.1939,0.1945,0.1956,0.1966,0.1837,0.1837,0.1836,0,0,0.1608,0.163,0.1653,0.1676,0.1714,0.1726,0.1745,0.1777,0.181,0.186,0.1867,0.191,0.1942,0.1958,0.1967,0.2032,0.2012,0.2044,0.2097,0.2106,0.2116,0.2124,0.2133,0.2142,0.2048,0.2048,0.2048,0,0.1624,0.1647,0.1665,0.1694,0.172,0.1748,0.178,0.1813,0.1859,0.1889,0.1898,0.1969,0.1978,0.2033,0.2063,0.2057,0.2056,0.2058,0.212,0.2128,0.2134,0.2141,0.2149,0.2054,0.2053,0.2052,0.2052,0,0.1651,0.1686,0.1705,0.1748,0.178,0.1814,0.1853,0.1903,0.1946,0.1973,0.2052,0.2069,0.2108,0.2127,0.212,0.2181,0.2165,0.2135,0.2094,0.2153,0.2156,0.2162,0.2061,0.2059,0.2058,0.2057,0,0,0.1638,0.1709,0.172,0.1748,0.1812,0.1832,0.1908,0.1967,0.2019,0.2079,0.2141,0.2201,0.2219,0.2229,0.2235,0.2248,0.2307,0.2223,0.2221,0.2238,0.2337,0.2191,0.2183,0.2295,0.2297,0.2298,0.2327,0,0.1656,0.1709,0.1749,0.1811,0.1835,0.1896,0.1957,0.2022,0.2083,0.215,0.2194,0.2253,0.2256,0.2288,0.231,0.2307,0.2325,0.2302,0.2271,0.227,0.2137,0.2185,0.2302,0.2331,0.2332,0.2333,0.2334,0,0.1655,0.1693,0.1755,0.1831,0.1851,0.1906,0.2004,0.2064,0.2164,0.2214,0.229,0.2319,0.2384,0.2357,0.2401,0.2391,0.2378,0.2364,0.2364,0.2189,0.2133,0.2253,0.2344,0.2343,0.2343,0.2342,0.2341,0,0.1603,0.169,0.174,0.1768,0.1864,0.1924,0.1987,0.2092,0.2146,0.2262,0.2305,0.2386,0.2424,0.2437,0.2439,0.2428,0.2457,0.2428,0.2284,0.2274,0.2351,0.2341,0.244,0.244,0.244,0.244,0.2439,0,0.1574,0.1616,0.1729,0.1753,0.1824,0.1907,0.1996,0.2075,0.2183,0.2236,0.2337,0.2374,0.2444,0.2471,0.2463,0.2396,0.248,0.2297,0.2269,0.2397,0.2392,0.2356,0.2346,0.2441,0.244,0.244,0.244,0,0.1499,0.1575,0.1634,0.1755,0.18,0.1853,0.1988,0.2039,0.2161,0.2233,0.2271,0.238,0.2415,0.2459,0.2474,0.2399,0.2362,0.2312,0.2464,0.2444,0.2171,0.2167,0.2153,0.2148,0.2143,0.214,0.2137,0,0.1459,0.1487,0.162,0.166,0.1726,0.1821,0.1878,0.2015,0.2063,0.221,0.222,0.2309,0.2361,0.2269,0.2336,0.2313,0.2276,0.2245,0.2191,0.2166,0.2142,0.2143,0.2144,0.213,0.2129,0.2128,0.2127,0,0.1385,0.1454,0.1507,0.1585,0.166,0.172,0.1816,0.1834,0.1975,0.2097,0.2105,0.2118,0.2147,0.2164,0.2162,0.2142,0.2261,0.22,0.2208,0.2157,0.2139,0.2119,0.2125,0.2112,0.2114,0.2116,0.2117,0,0.134,0.1356,0.1437,0.1491,0.157,0.1591,0.1659,0.1704,0.1763,0.1921,0.192,0.2015,0.212,0.2075,0.2079,0.2049,0.2008,0.1925,0.1946,0.1963,0.1887,0.1835,0.1692,0,0,0,0,0,0.128,0.1283,0.133,0.1376,0.1444,0.1488,0.1597,0.1667,0.1798,0.1747,0.1827,0.1845,0.1847,0.1904,0.1832,0.2003,0.2025,0.1911,0.1944,0.2031,0.2048,0.1976,0,0,0,0,0,0,0.124,0.128,0.1288,0.1263,0.1269,0.1326,0.139,0.1488,0.1468,0.1608,0.1617,0.172,0.1753,0.1856,0.1789,0.1806,0.1784,0.1979,0.1973,0.2022,0.2037,0.2051,0.1982,0,0,0,0,0]},{"header":{"parameterUnit":"m.s-1","parameterCategory":2,"la1":30.2991,"la2":30.254,"lo1":-89.0895,"lo2":-89.0444,"dy":0.0017,"dx":0.0017,"nx":28,"ny":28,"refTime":"2024-03-26T03:00:00:Z","depth":"4","parameterNumber":3,"parameterNumberName":"V-component_of_CURRENTS"},"data":[0,0,0,0,0,0,0,0,0,0,0,0,0,0,0,0,0,0,0,0,0,0,0,0,0,0,0,0,0,0,0,0,0,0,0,0,0,0,0,0,0,0,0,0,0,0,0,0,0,0,0,0,0,0,0,0,0,0,0.013,0.013,0,0.0106,0.0106,0.0105,0.0092,0.0092,0.0092,0.0092,0.006,0.0059,0.0058,0,0,0,0,0,0,0,0,0,0,0,0,0,0.0137,0.0137,0.013,0.013,0.0129,0.0106,0.0106,0.0105,0.0092,0.0092,0.0092,0.0092,0.006,0.0059,0.0058,0,0,0,0,0,0,0,0,0,0,0,0,0,0.0126,0.0137,0.013,0.012,0.0119,0.0106,0.0106,0.0105,0.0092,0.0092,0.0092,0.0092,0.0061,0.0059,0.0058,0.0051,0,0,0.0054,0.0054,0,0,0,0,0,0,0,0,0.0126,0.0125,0.0122,0.0121,0.012,0.0102,0.0097,0.0087,0.0092,0.0102,0.0092,0.0092,0.0074,0.0071,0.0067,0.0049,0.0048,0.0054,0.0053,0.0053,0.0053,0,0,0,0,0,0,0,0.0127,0.0126,0.012,0.0122,0.012,0.0108,0.0106,0.0095,0.0088,0.0101,0.01,0.0098,0.0073,0.0068,0.0066,0.0047,0.0054,0.0053,0.0052,0.0052,0.0029,0.0029,0,0,0,0,0,0,0.0132,0.0127,0.0121,0.0119,0.0123,0.0108,0.0106,0.0108,0.0088,0.0085,0.0098,0.0097,0.007,0.0067,0.0064,0.0067,0.0053,0.0052,0.0051,0.0029,0.0029,0.0029,0,0,0,0,0,0,0.0132,0.0132,0.0122,0.0123,0.0121,0.0108,0.011,0.0107,0.0105,0.0086,0.0083,0.0099,0.007,0.0066,0.0058,0.0065,0.0051,0.005,0.0029,0.0029,0.0029,0.0064,0,0,0,0,0,0,0.0133,0.0132,0.0135,0.0123,0.0121,0.0119,0.0109,0.0107,0.0103,0.0103,0.0085,0.0082,0.007,0.006,0.0057,0.0063,0.0049,0.0029,0.0029,0.0029,0.0063,0.0065,0.0068,0,0,0,0,0,0.0133,0.0139,0.0136,0.0135,0.0126,0.0119,0.0117,0.0107,0.0104,0.0105,0.0093,0.0083,0.006,0.006,0.0056,0.0061,0.0028,0.0029,0.0029,0.0061,0.0065,0.0068,0,0,0,0,0,0,0.014,0.0138,0.0134,0.0138,0.0131,0.0117,0.0118,0.011,0.0102,0.0103,0.0084,0.008,0.0076,0.0063,0.0063,0.0055,0.0042,0.0042,0.0068,0.0071,0.0074,0.0086,0.0048,0,0,0,0,0,0.0145,0.0151,0.0142,0.0145,0.0144,0.0132,0.0128,0.0122,0.0112,0.0109,0.0096,0.0083,0.0073,0.0068,0.0056,0.0052,0.0035,0.0053,0.0056,0.0058,0.0065,0.0039,0.004,0.003,0.003,0.003,0,0,0.0148,0.0147,0.0151,0.0147,0.0142,0.0147,0.013,0.0128,0.0133,0.0106,0.0108,0.0091,0.0074,0.007,0.0067,0.0061,0.0051,0.0058,0.0061,0.0067,0.004,0.0041,0.0042,0.0031,0.0031,0.003,0,0,0.0161,0.0159,0.017,0.0168,0.0164,0.0158,0.016,0.0149,0.0145,0.0142,0.0125,0.0112,0.0098,0.0086,0.0079,0.0088,0.0065,0.0084,0.0108,0.0083,0.0084,0.0084,0.0063,0.0061,0.0086,0.0086,0.0086,0,0.0165,0.018,0.0171,0.0181,0.0186,0.0167,0.0181,0.0173,0.016,0.0162,0.0148,0.0125,0.0106,0.0104,0.0107,0.0094,0.0077,0.0099,0.0087,0.0087,0.0087,0.0065,0.0062,0.0088,0.0088,0.0088,0.0087,0,0.0188,0.02,0.0206,0.0217,0.0219,0.0227,0.0218,0.0217,0.0209,0.0201,0.0193,0.0162,0.0152,0.0139,0.0126,0.012,0.0107,0.0092,0.0081,0.009,0.0066,0.0063,0.009,0.009,0.0089,0.0089,0,0,0.0203,0.022,0.0225,0.0242,0.0242,0.0251,0.0256,0.0262,0.0274,0.0247,0.0255,0.0226,0.0208,0.0198,0.0173,0.0147,0.0127,0.0124,0.0122,0.0106,0.0074,0.0074,0.007,0.0109,0.0109,0.0108,0.0058,0,0.0228,0.0261,0.0261,0.0296,0.0315,0.0305,0.0317,0.0317,0.0308,0.0308,0.0271,0.0268,0.0231,0.0228,0.0196,0.0147,0.012,0.0142,0.0065,0.0063,0.0064,0.0067,0.0107,0.0056,0.0055,0.0054,0.0054,0,0.0256,0.0278,0.0317,0.035,0.0358,0.0376,0.0401,0.0407,0.0395,0.0389,0.0369,0.0337,0.0304,0.0266,0.0186,0.0202,0.0146,0.0099,0.0095,0.0082,0.0057,0.0044,0.0048,0.0048,0.0049,0.0049,0.005,0,0.0289,0.0322,0.036,0.0369,0.0395,0.0419,0.0437,0.0438,0.0454,0.0443,0.0449,0.0396,0.0378,0.0297,0.0203,0.0195,0.0107,0.0083,0.0027,0.0026,0.0026,0.0026,0.0024,0.0024,0.0024,0.0024,0.0024,0,0.0319,0.0353,0.0383,0.0406,0.046,0.0464,0.0515,0.0519,0.0528,0.0554,0.0499,0.0499,0.0385,0.0318,0.0222,0.0122,0.0123,0.0035,0.0014,0.0042,0.0044,0.0024,0.0024,0.0022,0.0023,0.0023,0.0023,0,0.0346,0.0363,0.0414,0.0458,0.0478,0.0519,0.0576,0.0607,0.0609,0.0638,0.0638,0.058,0.0497,0.0375,0.0244,0.016,0.0054,0.0016,0.0063,0.0045,-0.0017,-0.0014,-0.0052,-0.0052,-0.0052,-0.0053,-0.0053,0,0.0362,0.039,0.0456,0.0495,0.0522,0.0583,0.0626,0.0649,0.0682,0.0688,0.0703,0.0636,0.0582,0.0403,0.0267,0.0086,0.0054,-0.0004,-0.0022,-0.0008,-0.0025,-0.0021,-0.0018,-0.0053,-0.0054,-0.0054,-0.0054,0,0.0392,0.0417,0.0459,0.0539,0.0599,0.066,0.0724,0.0753,0.0776,0.0778,0.0761,0.0663,0.057,0.0415,0.0277,0.0143,0.003,-0.0009,-0.001,-0.0027,-0.0011,-0.0026,-0.0022,-0.0055,-0.0055,-0.0055,-0.0055,0,0.0416,0.045,0.0508,0.0579,0.0653,0.0718,0.075,0.0789,0.0816,0.0816,0.0811,0.0702,0.0638,0.0446,0.0319,0.0188,0.0144,0.0088,0.0081,0.0081,0.0128,0.0168,0.0166,0,0,0,0,0,0.0436,0.0477,0.0544,0.0622,0.0695,0.074,0.0804,0.0826,0.085,0.0845,0.0828,0.0739,0.0552,0.0474,0.0344,0.0299,0.0116,0.014,0.0046,-0.0062,-0.006,-0.0029,0,0,0,0,0,0,0.045,0.0512,0.0544,0.0642,0.0703,0.0783,0.0828,0.0845,0.0841,0.0842,0.0749,0.0699,0.0521,0.0631,0.0341,0.0302,0.0221,0.0054,0.0051,-0.0063,-0.0061,-0.006,-0.0027,0,0,0,0,0]}]]